Newcastle, WY

4:48 AM MST on December 07, 2019 (GMT -0700)
Mondell

Weather History for KECS - October, 2019

Change the Weather History Date:

Friday, October 4, 2019

  Actual Average (KCUT) Record (KCUT)
Temperature  
Mean Temperature 54 °F -  
Max Temperature 66 °F 60 °F 81 °F (1992)
Min Temperature 41 °F 33 °F 16 °F (1964)
Degree Days  
Heating Degree Days 11    
Growing Degree Days 4 (Base 50)    
Moisture  
Dew Point 38 °F    
Average Humidity 56    
Maximum Humidity 93    
Minimum Humidity 40    
Precipitation  
Precipitation 0.00 in - - ()
Sea Level Pressure  
Sea Level Pressure 29.92 in    
Wind  
Wind Speed 17 mph (SE)    
Max Wind Speed 31 mph    
Max Gust Speed 48 mph    
Visibility 10 miles    
Events Rain    
Averages and records for this station are not official NWS values.
T = Trace of Precipitation, MM = Missing Value Source: NWS Daily Summary

Daily Weather History Graph

Daily Weather History Graph

Search for Another Location

Airport or City:

Astronomy

Oct. 04, 2019 Rise Set
Actual Time 6:58 AM MDT 6:33 PM MDT
Civil Twilight 6:29 AM MDT 7:01 PM MDT
Nautical Twilight 5:56 AM MDT 7:35 PM MDT
Astronomical Twilight 5:22 AM MDT 8:08 PM MDT
Moon 1:43 PM MDT (10/4) 10:53 PM MDT (10/4)
Length of Visible Light 12h 32m
Length of Day
11h 34m
Waxing Crescent, 40% of the Moon is Illuminated
Oct 4
Waxing Crescent
Oct 5
First Quarter
Oct 13
Full
Oct 21
Last Quarter
Oct 27
New

Hourly Weather History & Observations

Time (MDT) Temp. Windchill Dew Point Humidity Pressure Visibility Wind Dir Wind Speed Gust Speed Precip Events Conditions
12:15 AM 51.8 °F - 32.0 °F 47% 30.08 in 10.0 mi ESE 18.4 mph 33.4 mph N/A   Clear
12:35 AM 51.8 °F - 32.0 °F 47% 30.08 in 10.0 mi ESE 18.4 mph 35.7 mph N/A   Clear
12:55 AM 51.8 °F - 32.0 °F 47% 30.07 in 10.0 mi ESE 15.0 mph 32.2 mph N/A   Clear
1:15 AM 51.8 °F - 32.0 °F 47% 30.06 in 10.0 mi ESE 21.9 mph 31.1 mph N/A   Clear
1:35 AM 50.0 °F - 32.0 °F 50% 30.06 in 10.0 mi ESE 21.9 mph 31.1 mph N/A   Clear
1:55 AM 51.8 °F - 32.0 °F 47% 30.05 in 10.0 mi ESE 24.2 mph 33.4 mph N/A   Clear
2:15 AM 51.8 °F - 32.0 °F 47% 30.04 in 10.0 mi ESE 21.9 mph 33.4 mph N/A   Clear
2:35 AM 51.8 °F - 32.0 °F 47% 30.04 in 10.0 mi ESE 20.7 mph 36.8 mph N/A   Clear
2:55 AM 50.0 °F - 32.0 °F 50% 30.04 in 10.0 mi ESE 18.4 mph 28.8 mph N/A   Clear
3:15 AM 50.0 °F - 32.0 °F 50% 30.03 in 10.0 mi SE 23.0 mph 34.5 mph N/A   Clear
3:35 AM 50.0 °F - 32.0 °F 50% 30.02 in 10.0 mi ESE 18.4 mph 31.1 mph N/A   Clear
3:55 AM 50.0 °F - 32.0 °F 50% 30.02 in 10.0 mi SE 20.7 mph 28.8 mph N/A   Clear
4:15 AM 50.0 °F - 33.8 °F 54% 30.02 in 10.0 mi SE 19.6 mph 32.2 mph N/A   Clear
4:35 AM 48.2 °F - 33.8 °F 58% 30.02 in 10.0 mi ESE 20.7 mph 27.6 mph N/A   Clear
4:55 AM 48.2 °F - 33.8 °F 58% 30.02 in 10.0 mi SE 18.4 mph 27.6 mph N/A   Clear
5:15 AM 46.4 °F 39.5 °F 33.8 °F 62% 30.02 in 10.0 mi SE 17.3 mph 24.2 mph N/A   Clear
5:35 AM 46.4 °F 39.0 °F 33.8 °F 62% 30.01 in 10.0 mi ESE 19.6 mph 29.9 mph N/A   Clear
5:55 AM 48.2 °F - 33.8 °F 58% 30.00 in 10.0 mi SE 18.4 mph 27.6 mph N/A   Clear
6:15 AM 46.4 °F 39.5 °F 33.8 °F 62% 30.00 in 10.0 mi ESE 17.3 mph 24.2 mph N/A   Clear
6:35 AM 46.4 °F 39.5 °F 33.8 °F 62% 30.00 in 10.0 mi SE 17.3 mph 24.2 mph N/A   Clear
6:55 AM 46.4 °F 39.8 °F 33.8 °F 62% 29.99 in 10.0 mi SE 16.1 mph 23.0 mph N/A   Clear
7:15 AM 46.4 °F 39.5 °F 33.8 °F 62% 29.98 in 10.0 mi SE 17.3 mph 24.2 mph N/A   Clear
7:35 AM 46.4 °F 40.1 °F 33.8 °F 62% 29.98 in 10.0 mi SE 15.0 mph 25.3 mph N/A   Clear
7:55 AM 48.2 °F - 35.6 °F 62% 29.99 in 10.0 mi SSE 16.1 mph 24.2 mph N/A   Clear
8:15 AM 50.0 °F - 35.6 °F 58% 29.99 in 10.0 mi SSE 15.0 mph 23.0 mph N/A   Clear
8:35 AM 50.0 °F - 35.6 °F 58% 29.99 in 10.0 mi SSE 17.3 mph 25.3 mph N/A   Clear
8:55 AM 50.0 °F - 35.6 °F 58% 29.98 in 10.0 mi SE 18.4 mph 24.2 mph N/A   Clear
9:15 AM 51.8 °F - 37.4 °F 58% 29.98 in 10.0 mi SE 17.3 mph 28.8 mph N/A   Clear
9:35 AM 51.8 °F - 37.4 °F 58% 29.97 in 10.0 mi SE 17.3 mph 25.3 mph N/A   Clear
9:55 AM 53.6 °F - 37.4 °F 54% 29.97 in 10.0 mi SE 19.6 mph 24.2 mph N/A   Clear
10:15 AM 53.6 °F - 37.4 °F 54% 29.96 in 10.0 mi SE 18.4 mph 25.3 mph N/A   Clear
10:35 AM 55.4 °F - 37.4 °F 51% 29.95 in 10.0 mi SSE 16.1 mph 23.0 mph N/A   Clear
10:55 AM 55.4 °F - 37.4 °F 51% 29.94 in 10.0 mi SSE 19.6 mph 23.0 mph N/A   Clear
11:15 AM 57.2 °F - 37.4 °F 48% 29.91 in 10.0 mi SSE 17.3 mph 25.3 mph N/A   Clear
11:35 AM 59.0 °F - 37.4 °F 45% 29.91 in 10.0 mi SE 17.3 mph 31.1 mph N/A   Clear
11:55 AM 60.8 °F - 39.2 °F 45% 29.90 in 10.0 mi SE 20.7 mph 27.6 mph N/A   Clear
12:15 PM 60.8 °F - 39.2 °F 45% 29.90 in 10.0 mi South 12.7 mph 21.9 mph N/A   Clear
12:35 PM 60.8 °F - 41.0 °F 48% 29.90 in 10.0 mi SSE 18.4 mph 24.2 mph N/A   Clear
12:55 PM 62.6 °F - 41.0 °F 45% 29.89 in 10.0 mi SSE 16.1 mph 21.9 mph N/A   Clear
1:15 PM 62.6 °F - 41.0 °F 45% 29.88 in 10.0 mi SSE 17.3 mph 27.6 mph N/A   Clear
1:35 PM 62.6 °F - 41.0 °F 45% 29.86 in 10.0 mi SSE 13.8 mph 26.5 mph N/A   Clear
1:55 PM 64.4 °F - 41.0 °F 42% 29.84 in 10.0 mi SSE 16.1 mph 25.3 mph N/A   Clear
2:15 PM 64.4 °F - 41.0 °F 42% 29.83 in 10.0 mi SSE 12.7 mph 21.9 mph N/A   Clear
2:35 PM 64.4 °F - 41.0 °F 42% 29.82 in 10.0 mi SSE 16.1 mph 24.2 mph N/A   Clear
2:55 PM 64.4 °F - 41.0 °F 42% 29.81 in 10.0 mi SSE 16.1 mph 26.5 mph N/A   Clear
3:15 PM 62.6 °F - 42.8 °F 48% 29.80 in 10.0 mi SSE 16.1 mph 23.0 mph N/A   Clear
3:35 PM 62.6 °F - 42.8 °F 48% 29.79 in 10.0 mi SSE 16.1 mph 25.3 mph N/A   Clear
3:55 PM 64.4 °F - 42.8 °F 45% 29.78 in 10.0 mi SSE 15.0 mph - N/A   Clear
4:15 PM 66.2 °F - 41.0 °F 40% 29.78 in 10.0 mi SSE 13.8 mph 21.9 mph N/A   Clear
4:35 PM 64.4 °F - 41.0 °F 42% 29.77 in 10.0 mi SSE 10.4 mph - N/A   Clear
4:55 PM 64.4 °F - 42.8 °F 45% 29.78 in 10.0 mi SSE 11.5 mph 16.1 mph N/A   Clear
5:15 PM 62.6 °F - 42.8 °F 48% 29.78 in 10.0 mi SSE 16.1 mph - N/A   Scattered Clouds
5:35 PM 60.8 °F - 42.8 °F 52% 29.80 in 10.0 mi SW 5.8 mph - N/A   Mostly Cloudy
5:55 PM 60.8 °F - 42.8 °F 52% 29.78 in 10.0 mi SSE 3.5 mph - N/A   Mostly Cloudy
6:15 PM 59.0 °F - 42.8 °F 55% 29.78 in 10.0 mi SE 4.6 mph - N/A   Mostly Cloudy
6:35 PM 59.0 °F - 44.6 °F 59% 29.78 in 10.0 mi Calm Calm - N/A   Mostly Cloudy
6:55 PM 55.4 °F - 44.6 °F 67% 29.81 in 10.0 mi SSW 6.9 mph - N/A   Overcast
7:15 PM 55.4 °F - 44.6 °F 67% 29.81 in 10.0 mi SSE 6.9 mph - N/A   Overcast
7:35 PM 55.4 °F - 44.6 °F 67% 29.82 in 10.0 mi ESE 8.1 mph - N/A   Mostly Cloudy
7:55 PM 55.4 °F - 44.6 °F 67% 29.80 in 10.0 mi ESE 6.9 mph - N/A   Mostly Cloudy
8:15 PM 55.4 °F - 44.6 °F 67% 29.82 in 10.0 mi NW 10.4 mph 25.3 mph N/A   Mostly Cloudy
8:35 PM 53.6 °F - 41.0 °F 62% 29.87 in 10.0 mi NW 28.8 mph 48.3 mph N/A   Overcast
8:55 PM 50.0 °F - 37.4 °F 62% 29.88 in 10.0 mi NW 31.1 mph 40.3 mph N/A   Overcast
9:15 PM 50.0 °F - 37.4 °F 62% 29.91 in 10.0 mi NW 15.0 mph 25.3 mph N/A Rain Light Rain
9:35 PM 46.4 °F 39.5 °F 39.2 °F 76% 29.90 in 10.0 mi NNW 17.3 mph 23.0 mph N/A Rain Light Rain
9:55 PM 46.4 °F 40.7 °F 39.2 °F 76% 29.90 in 10.0 mi North 12.7 mph - N/A   Overcast
10:15 PM 46.4 °F 40.7 °F 37.4 °F 71% 29.88 in 10.0 mi NNW 12.7 mph 18.4 mph N/A   Scattered Clouds
10:35 PM 44.6 °F 39.2 °F 37.4 °F 76% 29.88 in 10.0 mi North 10.4 mph 21.9 mph N/A   Clear
10:55 PM 42.8 °F 38.0 °F 39.2 °F 87% 29.90 in 10.0 mi WNW 8.1 mph 19.6 mph N/A   Clear
11:15 PM 42.8 °F 39.3 °F 41.0 °F 93% 29.88 in 10.0 mi North 5.8 mph - N/A   Clear
11:35 PM 42.8 °F 38.0 °F 39.2 °F 87% 29.87 in 10.0 mi WNW 8.1 mph - N/A   Clear
11:55 PM 41.0 °F 37.1 °F 37.4 °F 87% 29.85 in 10.0 mi NW 5.8 mph - N/A   Clear